Date,TemperatureHighF,TemperatureAvgF,TemperatureLowF,DewpointHighF,DewpointAvgF,DewpointLowF,HumidityHigh,HumidityAvg,HumidityLow,PressureMaxIn,PressureMinIn,WindSpeedMaxMPH,WindSpeedAvgMPH,GustSpeedMaxMPH,PrecipitationSumIn
2013-3-1,38.6,34.3,30.9,32.6,30.1,18.2,99,85,44,29.65,29.51,7,3,13,0.00
2013-3-2,45.3,36.1,31.2,32.9,30.2,27.9,100,80,53,29.64,29.57,7,2,9,0.00
2013-3-3,38.6,34.7,30.8,35.5,31.7,26.3,100,89,74,29.61,29.53,6,2,13,0.13
2013-3-4,36.4,32.5,29.0,27.4,24.7,13.2,79,72,50,29.68,29.52,9,5,21,0.00
2013-3-5,42.6,35.8,29.6,34.3,29.5,22.9,94,78,63,30.05,29.68,7,3,13,0.00
2013-3-6,37.3,34.6,31.3,35.5,33.1,23.3,100,94,71,30.14,30.04,12,8,23,0.11
2013-3-7,32.9,31.5,29.2,31.5,28.8,26.2,99,89,77,30.11,29.99,11,7,22,0.02
2013-3-8,42.8,34.5,27.3,30.3,26.0,21.2,100,75,44,30.13,29.93,11,7,19,0.12
2013-3-9,40.9,35.3,27.4,30.9,25.8,21.0,100,69,52,30.33,30.12,9,4,16,0.00
2013-3-10,39.5,31.7,24.2,32.7,28.7,24.2,100,89,70,30.39,30.28,7,2,12,0.00
2013-3-11,42.2,38.3,32.9,39.4,35.9,32.3,97,91,79,30.27,30.13,5,4,10,0.00
2013-3-12,48.2,41.4,38.5,48.2,41.3,38.5,100,100,97,30.13,29.71,8,5,17,0.11
2013-3-13,51.3,43.1,34.3,45.2,36.4,24.5,100,80,49,29.74,29.66,6,3,13,0.00
2013-3-14,38.0,30.9,22.9,27.4,20.4,-2.2,82,65,32,29.76,29.64,10,4,22,0.00
2013-3-15,40.8,26.6,19.4,31.4,12.5,5.9,100,57,34,29.80,29.60,8,5,18,0.00
2013-3-16,35.4,31.1,26.8,27.6,20.4,13.5,92,66,43,29.84,29.65,5,3,11,0.01
2013-3-17,37.0,28.7,23.0,21.3,10.1,2.5,81,46,33,30.28,29.86,8,4,16,0.00
2013-3-18,33.6,27.1,17.3,26.4,15.6,3.0,75,62,40,30.42,30.24,6,3,12,0.00
2013-3-19,33.1,31.0,25.5,33.1,30.4,25.5,100,97,88,30.21,29.64,12,6,21,0.00
2013-3-20,36.8,31.3,23.5,29.7,25.3,23.5,100,79,63,29.75,29.64,7,4,14,0.20
2013-3-21,37.1,29.9,25.4,29.1,24.1,21.9,96,79,58,29.75,29.59,5,2,8,0.12
2013-3-22,40.1,34.1,28.2,29.6,23.6,19.7,95,66,46,29.67,29.56,6,2,12,0.03
2013-3-23,41.4,32.9,26.7,24.6,22.5,20.1,79,66,44,29.69,29.57,10,5,23,0.00
2013-3-24,45.9,37.4,32.2,32.7,27.3,24.1,89,67,46,29.77,29.69,6,4,15,0.00
2013-3-25,39.3,34.3,0.0,34.2,31.0,26.9,95,84,77,29.74,29.54,9,5,16,0.00
2013-3-26,50.4,39.9,33.6,32.4,25.9,22.8,88,59,34,29.73,29.53,6,4,10,0.00
2013-3-27,53.1,41.7,32.5,36.3,29.2,24.2,93,63,37,29.84,29.70,5,3,10,0.00
2013-3-28,46.4,39.2,34.9,37.6,36.0,31.2,100,88,55,29.96,29.84,4,3,7,0.02
2013-3-29,56.2,42.9,34.6,37.9,34.4,30.1,93,75,39,29.99,29.93,6,3,13,0.00
2013-3-30,51.5,46.8,35.0,47.9,37.2,31.7,92,69,47,30.06,29.98,7,4,13,0.00
2013-3-31,48.6,40.3,30.5,39.7,34.1,25.9,95,79,44,30.09,29.80,8,4,15,0.00